,,Stat1,,Stat2,,Stat3,,Stat4,,Wind1,,Wind1,
time,status,PR1M_SUM,status,RH1M_AVG,status,SR1M_AVG,status,TA1M_AVG,status,W1dAve1m,status,W1sAve1m,
2000-03-03, 00:01:00,VALID,0,VALID,85.7087,VALID,-0.0169808,VALID,15.3409,VALID,181,VALID,0.710938,
2000-03-03, 00:02:00,VALID,0,VALID,85.5319,VALID,-0.0169808,VALID,15.4605,VALID,205,VALID,0.557644,
2000-03-03, 00:03:00,VALID,0,VALID,85.6362,VALID,-0.0169808,VALID,15.4637,VALID,213,VALID,0.508446,
2000-03-03, 00:04:00,VALID,0,VALID,85.8549,VALID,0,VALID,15.402,VALID,209,VALID,0.733232,
2000-03-03, 00:05:00,VALID,0,VALID,86.3839,VALID,0.0169808,VALID,15.3024,VALID,189,VALID,0.845228,
2000-03-03, 00:06:00,VALID,0,VALID,86.4907,VALID,0,VALID,15.2187,VALID,173,VALID,1.09755,
2000-03-03, 00:07:00,VALID,0,VALID,85.9859,VALID,0.0339617,VALID,15.2282,VALID,172,VALID,0.877204,
2000-03-03, 00:08:00,VALID,0,VALID,86.225,VALID,0,VALID,15.2669,VALID,217,VALID,0.611225,
2000-03-03, 00:09:00,VALID,0,VALID,86.9688,VALID,0,VALID,15.2214,VALID,228,VALID,0.754645,
2000-03-03, 00:10:00,VALID,0,VALID,89.437,VALID,0,VALID,15.1923,VALID,229,VALID,0.977796,
2000-03-03, 00:11:00,VALID,0,VALID,91.0151,VALID,0.0169808,VALID,15.2153,VALID,216,VALID,0.972356,
2000-03-03, 00:12:00,VALID,0,VALID,90.036,VALID,0,VALID,15.2343,VALID,207,VALID,0.975962,
2000-03-03, 00:13:00,VALID,0,VALID,88.0484,VALID,0,VALID,15.2891,VALID,194,VALID,1.08293,
2000-03-03, 00:14:00,VALID,0,VALID,85.1327,VALID,0,VALID,15.3635,VALID,189,VALID,1.40975,
2000-03-03, 00:15:00,VALID,0,VALID,85.167,VALID,-0.0169808,VALID,15.5676,VALID,179,VALID,0.82168,
2000-03-03, 00:16:00,VALID,0,VALID,85.4747,VALID,0.0169808,VALID,15.6118,VALID,202,VALID,0.490543,
2000-03-03, 00:17:00,VALID,0,VALID,85.7278,VALID,0.0339617,VALID,15.5892,VALID,212,VALID,0.48112,
2000-03-03, 00:18:00,VALID,0,VALID,86.5429,VALID,0.0509425,VALID,15.538,VALID,205,VALID,0.664263,
2000-03-03, 00:19:00,VALID,0,VALID,87.0401,VALID,0.0169808,VALID,15.4089,VALID,195,VALID,0.590461,
2000-03-03, 00:20:00,VALID,0,VALID,86.7171,VALID,0,VALID,15.3119,VALID,190,VALID,0.726944,
2000-03-03, 00:21:00,VALID,0,VALID,86.0253,VALID,0.0169808,VALID,15.247,VALID,184,VALID,1.01584,
2000-03-03, 00:22:00,VALID,0,VALID,85.3882,VALID,0.0169808,VALID,15.2897,VALID,185,VALID,1.22095,
2000-03-03, 00:23:00,VALID,0,VALID,84.5503,VALID,0.0339617,VALID,15.3252,VALID,197,VALID,1.1912,
2000-03-03, 00:24:00,VALID,0,VALID,84.2947,VALID,-0.0849042,VALID,15.3713,VALID,203,VALID,0.955025,
2000-03-03, 00:25:00,VALID,0,VALID,83.767,VALID,-0.101885,VALID,15.3875,VALID,198,VALID,0.955592,
2000-03-03, 00:26:00,VALID,0,VALID,84.0594,VALID,-0.101885,VALID,15.4169,VALID,198,VALID,0.730058,
2000-03-03, 00:27:00,VALID,0,VALID,84.0276,VALID,-0.0849042,VALID,15.3812,VALID,201,VALID,0.708203,
2000-03-03, 00:28:00,VALID,0,VALID,83.8343,VALID,-0.0679233,VALID,15.3457,VALID,201,VALID,0.657169,
2000-03-03, 00:29:00,VALID,0,VALID,82.9455,VALID,-0.101885,VALID,15.3328,VALID,188,VALID,0.743666,
2000-03-03, 00:30:00,VALID,0,VALID,82.2563,VALID,-0.101885,VALID,15.4231,VALID,189,VALID,0.815717,
2000-03-03, 00:31:00,VALID,0,VALID,81.9562,VALID,-0.101885,VALID,15.5329,VALID,205,VALID,0.923828,
2000-03-03, 00:32:00,VALID,0,VALID,81.8506,VALID,-0.0849042,VALID,15.5942,VALID,226,VALID,0.830387,
2000-03-03, 00:33:00,VALID,0,VALID,81.328,VALID,-0.0849042,VALID,15.594,VALID,216,VALID,0.936472,
2000-03-03, 00:34:00,VALID,0,VALID,81.0622,VALID,-0.0679233,VALID,15.6265,VALID,201,VALID,0.815168,
2000-03-03, 00:35:00,VALID,0,VALID,80.9262,VALID,-0.0849042,VALID,15.6388,VALID,176,VALID,0.937922,
2000-03-03, 00:36:00,VALID,0,VALID,79.5478,VALID,-0.101885,VALID,15.6845,VALID,181,VALID,1.09354,
2000-03-03, 00:37:00,VALID,0,VALID,79.6533,VALID,-0.0679233,VALID,15.8715,VALID,187,VALID,1.00781,
2000-03-03, 00:38:00,VALID,0,VALID,80.3006,VALID,-0.0849042,VALID,15.8907,VALID,196,VALID,0.97207,
2000-03-03, 00:39:00,VALID,0,VALID,80.7443,VALID,0,VALID,15.7735,VALID,206,VALID,0.951225,
2000-03-03, 00:40:00,VALID,0,VALID,80.0933,VALID,0,VALID,15.6963,VALID,206,VALID,1.09089,
2000-03-03, 00:41:00,VALID,0,VALID,79.5071,VALID,0,VALID,15.758,VALID,195,VALID,1.24177,
2000-03-03, 00:42:00,VALID,0,VALID,78.4135,VALID,0,VALID,15.8514,VALID,190,VALID,1.58868,
2000-03-03, 00:43:01,VALID,0,VALID,77.2118,VALID,0,VALID,16.0351,VALID,190,VALID,1.53345,
2000-03-03, 00:44:00,VALID,0,VALID,76.4298,VALID,0.0169808,VALID,16.2546,VALID,193,VALID,1.77549,
2000-03-03, 00:45:00,VALID,0,VALID,75.8169,VALID,0,VALID,16.4545,VALID,189,VALID,1.95207,
2000-03-03, 00:46:00,VALID,0,VALID,75.5041,VALID,0,VALID,16.6161,VALID,186,VALID,1.53947,
2000-03-03, 00:47:00,VALID,0,VALID,75.1289,VALID,0.0339617,VALID,16.703,VALID,186,VALID,1.32212,
2000-03-03, 00:48:00,VALID,0,VALID,75.3667,VALID,0,VALID,16.7127,VALID,199,VALID,1.125,
2000-03-03, 00:49:00,VALID,0,VALID,76.0191,VALID,0.0679233,VALID,16.6443,VALID,205,VALID,0.951522,
2000-03-03, 00:50:00,VALID,0,VALID,76.5926,VALID,0.0169808,VALID,16.5544,VALID,199,VALID,0.924137,
2000-03-03, 00:51:00,VALID,0,VALID,76.7744,VALID,0.0339617,VALID,16.4317,VALID,195,VALID,1.21152,
2000-03-03, 00:52:00,VALID,0,VALID,76.8558,VALID,0.0169808,VALID,16.3996,VALID,194,VALID,1.25966,
2000-03-03, 00:53:00,VALID,0,VALID,77.2207,VALID,0.0339617,VALID,16.3831,VALID,203,VALID,1.24414,
2000-03-03, 00:54:01,VALID,0,VALID,76.8164,VALID,0.0169808,VALID,16.3831,VALID,215,VALID,1.03906,
2000-03-03, 00:55:00,VALID,0,VALID,77.3097,VALID,0.0339617,VALID,16.4158,VALID,211,VALID,0.936266,
2000-03-03, 00:56:00,VALID,0,VALID,77.5081,VALID,0.0339617,VALID,16.3538,VALID,223,VALID,0.884337,
2000-03-03, 00:57:00,VALID,0,VALID,77.3364,VALID,0.0509425,VALID,16.3119,VALID,226,VALID,0.866343,
2000-03-03, 00:58:00,VALID,0,VALID,77.3771,VALID,0.0679233,VALID,16.3121,VALID,220,VALID,0.910457,
2000-03-03, 00:59:00,VALID,0,VALID,77.4611,VALID,0.0169808,VALID,16.2994,VALID,208,VALID,0.855674,
2000-03-03, 01:00:00,VALID,0,VALID,77.4865,VALID,0.0679233,VALID,16.2925,VALID,199,VALID,1.10367,
2000-03-03, 01:01:00,VALID,0,VALID,77.1241,VALID,0.0509425,VALID,16.2762,VALID,192,VALID,1.28002,
2000-03-03, 01:02:00,VALID,0,VALID,76.7541,VALID,0.0509425,VALID,16.3213,VALID,193,VALID,1.2757,
2000-03-03, 01:03:00,VALID,0,VALID,76.1806,VALID,0,VALID,16.3958,VALID,197,VALID,1.53223,
2000-03-03, 01:04:00,VALID,0,VALID,75.5893,VALID,0.0169808,VALID,16.561,VALID,193,VALID,1.74219,
2000-03-03, 01:05:00,VALID,0,VALID,74.9865,VALID,0.0509425,VALID,16.7252,VALID,188,VALID,1.63007,
2000-03-03, 01:06:00,VALID,0,VALID,74.4575,VALID,0.0339617,VALID,16.8249,VALID,190,VALID,1.47886,
2000-03-03, 01:07:00,VALID,0,VALID,74.6902,VALID,0.0339617,VALID,16.8791,VALID,185,VALID,1.36241,
2000-03-03, 01:08:00,VALID,0,VALID,74.6623,VALID,0.0339617,VALID,16.8666,VALID,195,VALID,1.28351,
2000-03-03, 01:09:00,VALID,0,VALID,75.4659,VALID,0.0169808,VALID,16.8122,VALID,198,VALID,1.23314,
2000-03-03, 01:10:00,VALID,0,VALID,76.0241,VALID,0.0509425,VALID,16.7082,VALID,199,VALID,1.18559,
2000-03-03, 01:11:00,VALID,0,VALID,76.3204,VALID,0,VALID,16.6411,VALID,205,VALID,1.06187,
2000-03-03, 01:12:00,VALID,0,VALID,76.9257,VALID,0.0509425,VALID,16.5862,VALID,205,VALID,0.913851,
2000-03-03, 01:13:00,VALID,0,VALID,77.9354,VALID,0.0169808,VALID,16.4539,VALID,200,VALID,0.683594,
2000-03-03, 01:14:00,VALID,0,VALID,78.9107,VALID,0.0169808,VALID,16.2534,VALID,201,VALID,0.75332,
2000-03-03, 01:15:00,VALID,0,VALID,79.7296,VALID,0.0339617,VALID,16.063,VALID,203,VALID,0.654139,
2000-03-03, 01:16:01,VALID,0,VALID,81.1347,VALID,0.0509425,VALID,15.8952,VALID,207,VALID,0.654726,
2000-03-03, 01:17:00,VALID,0,VALID,81.7387,VALID,0.0509425,VALID,15.7276,VALID,204,VALID,0.501056,
2000-03-03, 01:18:00,VALID,0,VALID,82.6301,VALID,0.0509425,VALID,15.5533,VALID,186,VALID,0.479519,
2000-03-03, 01:19:00,VALID,0,VALID,83.5419,VALID,0.0509425,VALID,15.3887,VALID,183,VALID,0.417468,
2000-03-03, 01:20:00,VALID,0,VALID,83.9628,VALID,0,VALID,15.2305,VALID,194,VALID,0.640419,
2000-03-03, 01:21:00,VALID,0,VALID,83.9895,VALID,0.0509425,VALID,15.1109,VALID,202,VALID,0.729519,
2000-03-03, 01:22:00,VALID,0,VALID,84.2616,VALID,0.0339617,VALID,15.0401,VALID,200,VALID,0.629523,
2000-03-03, 01:23:00,VALID,0,VALID,83.4974,VALID,0.0339617,VALID,14.9984,VALID,198,VALID,0.666066,
2000-03-03, 01:24:00,VALID,0,VALID,83.5063,VALID,0.0679233,VALID,15.0175,VALID,198,VALID,0.903446,
2000-03-03, 01:25:00,VALID,0,VALID,82.6492,VALID,0.0339617,VALID,15.0663,VALID,197,VALID,1.03165,
2000-03-03, 01:26:00,VALID,0,VALID,81.9397,VALID,0.0169808,VALID,15.15,VALID,206,VALID,0.924753,
2000-03-03, 01:27:00,VALID,0,VALID,81.595,VALID,0.0339617,VALID,15.2305,VALID,205,VALID,0.799805,
2000-03-03, 01:28:00,VALID,0,VALID,81.6535,VALID,0.0169808,VALID,15.2756,VALID,201,VALID,0.792352,
2000-03-03, 01:29:00,VALID,0,VALID,80.8194,VALID,0.0509425,VALID,15.3466,VALID,195,VALID,0.937066,
2000-03-03, 01:30:00,VALID,0,VALID,80.6846,VALID,0.0509425,VALID,15.4825,VALID,183,VALID,1.16086,
2000-03-03, 01:31:00,VALID,0,VALID,80.0717,VALID,0.0169808,VALID,15.6273,VALID,187,VALID,1.23458,
2000-03-03, 01:32:00,VALID,0,VALID,79.5554,VALID,0.0169808,VALID,15.828,VALID,193,VALID,1.26524,
2000-03-03, 01:33:00,VALID,0,VALID,78.9781,VALID,0.0169808,VALID,15.9829,VALID,187,VALID,1.27724,
2000-03-03, 01:34:00,VALID,0,VALID,78.1922,VALID,0.0169808,VALID,16.1311,VALID,187,VALID,1.32452,
2000-03-03, 01:35:00,VALID,0,VALID,77.5221,VALID,0.0169808,VALID,16.2534,VALID,193,VALID,1.30983,
2000-03-03, 01:36:00,VALID,0,VALID,77.091,VALID,0.0339617,VALID,16.3056,VALID,203,VALID,1.24409,
2000-03-03, 01:37:00,VALID,0,VALID,78.5635,VALID,0.0169808,VALID,16.2955,VALID,223,VALID,0.752878,
2000-03-03, 01:38:00,VALID,0,VALID,79.3926,VALID,0,VALID,16.144,VALID,238,VALID,0.635485,
2000-03-03, 01:39:01,VALID,0,VALID,79.1142,VALID,0.0339617,VALID,15.9857,VALID,229,VALID,0.790625,
2000-03-03, 01:40:00,VALID,0,VALID,78.8242,VALID,0.0339617,VALID,15.9216,VALID,215,VALID,1.15579,
2000-03-03, 01:41:00,VALID,0,VALID,78.6513,VALID,0,VALID,15.9248,VALID,210,VALID,1.15013,
2000-03-03, 01:42:00,VALID,0,VALID,78.9387,VALID,0.0169808,VALID,15.9373,VALID,192,VALID,0.971048,
2000-03-03, 01:43:00,VALID,0,VALID,79.2502,VALID,0.0339617,VALID,15.9377,VALID,192,VALID,1.02257,
2000-03-03, 01:44:00,VALID,0,VALID,79.1052,VALID,0.0339617,VALID,15.8925,VALID,208,VALID,0.97759,
2000-03-03, 01:45:00,VALID,0,VALID,79.2273,VALID,0,VALID,15.8532,VALID,216,VALID,0.927015,
2000-03-03, 01:46:00,VALID,0,VALID,79.5796,VALID,0.0169808,VALID,15.8282,VALID,218,VALID,1.07012,
2000-03-03, 01:47:00,VALID,0,VALID,79.516,VALID,0.0339617,VALID,15.7923,VALID,219,VALID,1.11655,
2000-03-03, 01:48:00,VALID,0,VALID,79.3138,VALID,0,VALID,15.7957,VALID,215,VALID,0.955236,
2000-03-03, 01:49:00,VALID,0,VALID,79.2121,VALID,0,VALID,15.8149,VALID,217,VALID,0.811472,
2000-03-03, 01:50:00,VALID,0,VALID,79.5999,VALID,0.0169808,VALID,15.857,VALID,214,VALID,0.859375,
2000-03-03, 01:51:00,VALID,0,VALID,80.6299,VALID,0,VALID,15.8151,VALID,211,VALID,0.802576,
2000-03-03, 01:52:00,VALID,0,VALID,81.3026,VALID,0.0339617,VALID,15.6634,VALID,204,VALID,0.785633,
2000-03-03, 01:53:00,VALID,0,VALID,82.1253,VALID,0.0339617,VALID,15.4793,VALID,190,VALID,0.809544,
2000-03-03, 01:54:00,VALID,0,VALID,82.7764,VALID,-0.0339617,VALID,15.3254,VALID,190,VALID,0.954392,
2000-03-03, 01:55:00,VALID,0,VALID,83.2214,VALID,-0.0849042,VALID,15.2223,VALID,188,VALID,1.11058,
2000-03-03, 01:56:00,VALID,0,VALID,83.1286,VALID,-0.0849042,VALID,15.1511,VALID,187,VALID,1.09293,
2000-03-03, 01:57:00,VALID,0,VALID,82.6301,VALID,-0.0849042,VALID,15.1676,VALID,193,VALID,1.21242,
2000-03-03, 01:58:00,VALID,0,VALID,81.6001,VALID,-0.0679233,VALID,15.3034,VALID,199,VALID,1.31558,
2000-03-03, 01:59:00,VALID,0,VALID,80.1238,VALID,-0.101885,VALID,15.5357,VALID,198,VALID,1.53425,
2000-03-03, 02:00:00,VALID,0,VALID,78.3995,VALID,-0.0509425,VALID,15.8322,VALID,195,VALID,1.61759,
2000-03-03, 02:01:01,VALID,0,VALID,76.5531,VALID,-0.101885,VALID,16.068,VALID,194,VALID,1.67248,
2000-03-03, 02:02:00,VALID,0,VALID,75.7749,VALID,-0.0679233,VALID,16.2711,VALID,196,VALID,1.44428,
2000-03-03, 02:03:00,VALID,0,VALID,73.9578,VALID,-0.0849042,VALID,16.4166,VALID,200,VALID,1.50312,
2000-03-03, 02:04:00,VALID,0,VALID,73.5267,VALID,-0.0679233,VALID,16.581,VALID,203,VALID,1.21464,
2000-03-03, 02:05:00,VALID,0,VALID,72.6264,VALID,-0.0849042,VALID,16.7005,VALID,199,VALID,1.25109,
2000-03-03, 02:06:00,VALID,0,VALID,72.2653,VALID,-0.101885,VALID,16.7652,VALID,199,VALID,1.14163,
2000-03-03, 02:07:00,VALID,0,VALID,72.2831,VALID,-0.0509425,VALID,16.7876,VALID,203,VALID,1.05078,
2000-03-03, 02:08:00,VALID,0,VALID,71.1704,VALID,-0.0849042,VALID,16.7747,VALID,194,VALID,1.39463,
2000-03-03, 02:09:00,VALID,0,VALID,71.0623,VALID,-0.0169808,VALID,16.8193,VALID,195,VALID,1.34692,
2000-03-03, 02:10:00,VALID,0,VALID,70.85,VALID,-0.0169808,VALID,16.8808,VALID,194,VALID,1.34175,
2000-03-03, 02:11:00,VALID,0,VALID,71.1908,VALID,-0.0169808,VALID,16.9198,VALID,191,VALID,1.21238,
2000-03-03, 02:12:01,VALID,0,VALID,72.1267,VALID,-0.0169808,VALID,16.9002,VALID,201,VALID,1.04181,
2000-03-03, 02:13:00,VALID,0,VALID,72.9252,VALID,0,VALID,16.8388,VALID,218,VALID,0.846628,
2000-03-03, 02:14:00,VALID,0,VALID,72.5387,VALID,0,VALID,16.6936,VALID,214,VALID,1.30798,
2000-03-03, 02:15:00,VALID,0,VALID,72.4293,VALID,-0.0339617,VALID,16.6484,VALID,199,VALID,1.27148,
2000-03-03, 02:16:00,VALID,0,VALID,71.9626,VALID,0,VALID,16.7581,VALID,195,VALID,1.50758,
2000-03-03, 02:17:00,VALID,0,VALID,71.3993,VALID,-0.0169808,VALID,16.8739,VALID,199,VALID,1.43581,
2000-03-03, 02:18:00,VALID,0,VALID,71.4044,VALID,0,VALID,16.9155,VALID,205,VALID,1.21415,
2000-03-03, 02:19:00,VALID,0,VALID,71.084,VALID,-0.0339617,VALID,16.9161,VALID,202,VALID,1.32943,
2000-03-03, 02:20:00,VALID,0,VALID,70.2129,VALID,0,VALID,16.9581,VALID,204,VALID,1.40604,
2000-03-03, 02:21:00,VALID,0,VALID,69.6115,VALID,0,VALID,17.0355,VALID,208,VALID,1.4229,
2000-03-03, 02:22:00,VALID,0,VALID,69.6598,VALID,0,VALID,17.0997,VALID,201,VALID,1.29459,
2000-03-03, 02:23:01,VALID,0,VALID,69.2643,VALID,0,VALID,17.132,VALID,204,VALID,1.23416,
2000-03-03, 02:24:00,VALID,0,VALID,69.5441,VALID,0,VALID,17.1453,VALID,203,VALID,0.982475,
2000-03-03, 02:25:00,VALID,0,VALID,69.4983,VALID,0.0169808,VALID,17.1122,VALID,201,VALID,1.14844,
2000-03-03, 02:26:00,VALID,0,VALID,70.1226,VALID,0.0169808,VALID,17.1029,VALID,198,VALID,1.3125,
2000-03-03, 02:27:00,VALID,0,VALID,70.4609,VALID,-0.0169808,VALID,17.0612,VALID,196,VALID,1.29012,
2000-03-03, 02:28:00,VALID,0,VALID,70.9683,VALID,0,VALID,16.9998,VALID,195,VALID,1.31021,
2000-03-03, 02:29:00,VALID,0,VALID,71.2035,VALID,0.0339617,VALID,16.9183,VALID,189,VALID,1.7557,
2000-03-03, 02:30:00,VALID,0,VALID,71.0445,VALID,0.0169808,VALID,16.9669,VALID,185,VALID,1.4242,
2000-03-03, 02:31:00,VALID,0,VALID,70.5995,VALID,0,VALID,17.0188,VALID,183,VALID,1.39283,
2000-03-03, 02:32:00,VALID,0,VALID,70.85,VALID,0.0169808,VALID,17.0835,VALID,199,VALID,1.08306,
2000-03-03, 02:33:00,VALID,0,VALID,70.2536,VALID,0,VALID,17.0577,VALID,198,VALID,1.72846,
2000-03-03, 02:34:01,VALID,0,VALID,70.1074,VALID,0,VALID,17.0702,VALID,188,VALID,1.684,
2000-03-03, 02:35:00,VALID,0,VALID,69.8569,VALID,0,VALID,17.0797,VALID,186,VALID,1.53005,
2000-03-03, 02:36:00,VALID,0,VALID,69.9624,VALID,0,VALID,17.0383,VALID,181,VALID,1.42408,
2000-03-03, 02:37:00,VALID,0,VALID,70.2422,VALID,0,VALID,16.96,VALID,188,VALID,1.23257,
2000-03-03, 02:38:00,VALID,0,VALID,70.0273,VALID,0,VALID,16.9378,VALID,191,VALID,1.44942,
2000-03-03, 02:39:00,VALID,0,VALID,69.3864,VALID,0.0169808,VALID,16.9443,VALID,195,VALID,1.43613,
2000-03-03, 02:40:00,VALID,0,VALID,69.2465,VALID,-0.0169808,VALID,16.9637,VALID,193,VALID,1.36246,
2000-03-03, 02:41:00,VALID,0,VALID,68.9515,VALID,-0.0169808,VALID,16.9766,VALID,193,VALID,1.398,
2000-03-03, 02:42:00,VALID,0,VALID,68.9477,VALID,-0.0339617,VALID,17.0123,VALID,187,VALID,1.40164,
2000-03-03, 02:43:00,VALID,0,VALID,69.0163,VALID,-0.0169808,VALID,17.0351,VALID,187,VALID,1.42105,
2000-03-03, 02:44:01,VALID,0,VALID,69.3164,VALID,-0.0169808,VALID,16.9863,VALID,187,VALID,1.08289,
2000-03-03, 02:45:01,VALID,0,VALID,69.3749,VALID,0,VALID,16.9378,VALID,192,VALID,1.2103,
2000-03-03, 02:46:00,VALID,0,VALID,69.6877,VALID,-0.0169808,VALID,16.8989,VALID,198,VALID,1.31971,
2000-03-03, 02:47:00,VALID,0,VALID,70.0298,VALID,-0.0169808,VALID,16.8731,VALID,195,VALID,1.11513,
2000-03-03, 02:48:00,VALID,0,VALID,69.5822,VALID,-0.0169808,VALID,16.8511,VALID,194,VALID,1.48142,
2000-03-03, 02:49:00,VALID,0,VALID,69.4232,VALID,0,VALID,16.8701,VALID,195,VALID,1.58635,
2000-03-03, 02:50:00,VALID,0,VALID,69.0697,VALID,-0.0509425,VALID,16.9346,VALID,191,VALID,1.51665,
2000-03-03, 02:51:00,VALID,0,VALID,69.1855,VALID,0.0169808,VALID,16.9802,VALID,192,VALID,1.22383,
2000-03-03, 02:52:00,VALID,0,VALID,70.0845,VALID,0,VALID,16.9247,VALID,197,VALID,1.17279,
2000-03-03, 02:53:00,VALID,0,VALID,71.1908,VALID,-0.0339617,VALID,16.8221,VALID,203,VALID,0.976563,
2000-03-03, 02:54:00,VALID,0,VALID,71.9944,VALID,-0.0169808,VALID,16.6701,VALID,200,VALID,0.952665,
2000-03-03, 02:55:00,VALID,0,VALID,74.0811,VALID,-0.0849042,VALID,16.4507,VALID,211,VALID,0.816406,
2000-03-03, 02:56:01,VALID,0,VALID,74.6979,VALID,-0.0339617,VALID,16.1824,VALID,211,VALID,1.12541,
2000-03-03, 02:57:00,VALID,0,VALID,74.2414,VALID,-0.0339617,VALID,15.973,VALID,201,VALID,1.00761,
2000-03-03, 02:58:00,VALID,0,VALID,75.4392,VALID,-0.0339617,VALID,15.8697,VALID,188,VALID,1.09299,
2000-03-03, 02:59:00,VALID,0,VALID,74.7297,VALID,0,VALID,15.776,VALID,189,VALID,1.16681,
2000-03-03, 03:00:00,VALID,0,VALID,75.0501,VALID,0,VALID,15.7953,VALID,189,VALID,1.13851,
2000-03-03, 03:01:00,VALID,0,VALID,75.3006,VALID,-0.0339617,VALID,15.8082,VALID,194,VALID,1.04749,
2000-03-03, 03:02:00,VALID,0,VALID,76.1996,VALID,-0.0339617,VALID,15.7691,VALID,192,VALID,0.919922,
2000-03-03, 03:03:00,VALID,0,VALID,77.0821,VALID,-0.0169808,VALID,15.6664,VALID,195,VALID,0.915118,
2000-03-03, 03:04:00,VALID,0,VALID,77.442,VALID,-0.0169808,VALID,15.5116,VALID,191,VALID,0.83346,
2000-03-03, 03:05:00,VALID,0,VALID,77.9303,VALID,0,VALID,15.4089,VALID,192,VALID,0.845017,
2000-03-03, 03:06:00,VALID,0,VALID,78.9717,VALID,-0.0339617,VALID,15.3018,VALID,196,VALID,0.614443,
2000-03-03, 03:07:00,VALID,0,VALID,80.0361,VALID,-0.0339617,VALID,15.2018,VALID,195,VALID,0.444912,
2000-03-03, 03:08:00,VALID,0,VALID,80.3629,VALID,-0.0169808,VALID,15.0726,VALID,208,VALID,0.858347,
2000-03-03, 03:09:00,VALID,0,VALID,81.2326,VALID,0,VALID,14.9818,VALID,210,VALID,0.835093,
2000-03-03, 03:10:00,VALID,0,VALID,81.9282,VALID,0,VALID,14.9044,VALID,202,VALID,0.864926,
2000-03-03, 03:11:00,VALID,0,VALID,82.1189,VALID,0.0169808,VALID,14.853,VALID,192,VALID,0.765825,
2000-03-03, 03:12:00,VALID,0,VALID,82.4661,VALID,0,VALID,14.8012,VALID,199,VALID,0.764423,
2000-03-03, 03:13:00,VALID,0,VALID,82.5106,VALID,0,VALID,14.7722,VALID,196,VALID,0.720753,
2000-03-03, 03:14:00,VALID,0,VALID,82.4674,VALID,0,VALID,14.7594,VALID,185,VALID,0.944079,
2000-03-03, 03:15:00,VALID,0,VALID,82.4686,VALID,0,VALID,14.8209,VALID,181,VALID,1.05879,
2000-03-03, 03:16:00,VALID,0,VALID,82.1724,VALID,0,VALID,14.9433,VALID,185,VALID,1.10485,
2000-03-03, 03:17:00,VALID,0,VALID,82.386,VALID,0,VALID,15.0274,VALID,183,VALID,1.07704,
2000-03-03, 03:18:00,VALID,0,VALID,82.5933,VALID,0.0509425,VALID,15.0822,VALID,184,VALID,1.08313,
2000-03-03, 03:19:00,VALID,0,VALID,82.7954,VALID,0.0169808,VALID,15.1439,VALID,187,VALID,1.09108,
2000-03-03, 03:20:00,VALID,0,VALID,83.0294,VALID,0,VALID,15.1786,VALID,190,VALID,1.20179,
2000-03-03, 03:21:00,VALID,0,VALID,82.7281,VALID,0,VALID,15.2633,VALID,191,VALID,1.13345,
2000-03-03, 03:22:00,VALID,0,VALID,82.639,VALID,0.0169808,VALID,15.2919,VALID,194,VALID,1.01282,
2000-03-03, 03:23:00,VALID,0,VALID,83.0218,VALID,0,VALID,15.2603,VALID,195,VALID,1.05325,
2000-03-03, 03:24:00,VALID,0,VALID,83.5075,VALID,0,VALID,15.1786,VALID,200,VALID,0.927787,
2000-03-03, 03:25:00,VALID,0,VALID,83.9234,VALID,0,VALID,15.1375,VALID,200,VALID,0.819901,
2000-03-03, 03:26:00,VALID,0,VALID,84.2845,VALID,0.0169808,VALID,15.0697,VALID,190,VALID,0.828331,
2000-03-03, 03:27:00,VALID,0,VALID,84.8618,VALID,0,VALID,15.0116,VALID,180,VALID,0.858008,
2000-03-03, 03:28:00,VALID,0,VALID,85.5485,VALID,0,VALID,14.9761,VALID,178,VALID,0.914982,
2000-03-03, 03:29:00,VALID,0,VALID,85.5052,VALID,0,VALID,14.9538,VALID,185,VALID,0.875845,
2000-03-03, 03:30:00,VALID,0,VALID,85.8549,VALID,0,VALID,14.8862,VALID,195,VALID,0.888097,
2000-03-03, 03:31:00,VALID,0,VALID,86.4831,VALID,0,VALID,14.783,VALID,197,VALID,0.848307,
2000-03-03, 03:32:00,VALID,0,VALID,86.7807,VALID,-0.0169808,VALID,14.7088,VALID,194,VALID,0.659745,
2000-03-03, 03:33:00,VALID,0,VALID,87.1316,VALID,-0.0169808,VALID,14.6311,VALID,195,VALID,0.655016,
2000-03-03, 03:34:00,VALID,0,VALID,87.5004,VALID,0,VALID,14.5571,VALID,199,VALID,0.633575,
2000-03-03, 03:35:00,VALID,0,VALID,88.1349,VALID,0,VALID,14.4767,VALID,201,VALID,0.702492,
2000-03-03, 03:36:00,VALID,0,VALID,88.702,VALID,0,VALID,14.393,VALID,193,VALID,0.773649,
2000-03-03, 03:37:00,VALID,0,VALID,89.0708,VALID,0,VALID,14.3412,VALID,181,VALID,0.964021,
2000-03-03, 03:38:00,VALID,0,VALID,88.8699,VALID,0,VALID,14.3923,VALID,182,VALID,1.03262,
2000-03-03, 03:39:00,VALID,0,VALID,88.3791,VALID,0.0169808,VALID,14.4733,VALID,185,VALID,1.06947,
2000-03-03, 03:40:00,VALID,0,VALID,88.0103,VALID,0,VALID,14.5059,VALID,191,VALID,0.944741,
2000-03-03, 03:41:00,VALID,0,VALID,88.1247,VALID,0,VALID,14.4863,VALID,187,VALID,0.959882,
2000-03-03, 03:42:00,VALID,0,VALID,88.0624,VALID,-0.0509425,VALID,14.4992,VALID,184,VALID,1.03336,
2000-03-03, 03:43:00,VALID,0,VALID,87.0731,VALID,0,VALID,14.586,VALID,178,VALID,1.16967,
2000-03-03, 03:44:00,VALID,0,VALID,85.7685,VALID,0,VALID,14.7993,VALID,178,VALID,1.10485,
2000-03-03, 03:45:00,VALID,0,VALID,84.9114,VALID,-0.0339617,VALID,14.993,VALID,177,VALID,1.05427,
2000-03-03, 03:46:00,VALID,0,VALID,84.4994,VALID,0,VALID,15.083,VALID,178,VALID,1,
2000-03-03, 03:47:00,VALID,0,VALID,84.4091,VALID,-0.0339617,VALID,15.1124,VALID,187,VALID,0.952925,
2000-03-03, 03:48:00,VALID,0,VALID,84.7092,VALID,-0.0169808,VALID,15.0483,VALID,197,VALID,0.834135,
2000-03-03, 03:49:00,VALID,0,VALID,85.2433,VALID,-0.0169808,VALID,14.9319,VALID,200,VALID,0.763221,
2000-03-03, 03:50:00,VALID,0,VALID,85.537,VALID,0,VALID,14.8317,VALID,197,VALID,0.881168,
2000-03-03, 03:51:00,VALID,0,VALID,85.476,VALID,0,VALID,14.7903,VALID,199,VALID,1.14395,
2000-03-03, 03:52:00,VALID,0,VALID,84.9025,VALID,0,VALID,14.8249,VALID,196,VALID,1.04523,
2000-03-03, 03:53:00,VALID,0,VALID,84.2413,VALID,-0.0169808,VALID,14.9226,VALID,200,VALID,1.01259,
2000-03-03, 03:54:00,VALID,0,VALID,84.3366,VALID,0,VALID,14.9579,VALID,207,VALID,0.836338,
2000-03-03, 03:55:00,VALID,0,VALID,84.2769,VALID,0.0169808,VALID,14.9317,VALID,211,VALID,0.922492,
2000-03-03, 03:56:00,VALID,0,VALID,84.343,VALID,-0.0169808,VALID,14.9575,VALID,210,VALID,0.598133,
2000-03-03, 03:57:00,VALID,0,VALID,84.6011,VALID,0,VALID,14.9287,VALID,208,VALID,0.644637,
2000-03-03, 03:58:00,VALID,0,VALID,85.195,VALID,-0.0169808,VALID,14.8507,VALID,199,VALID,0.708734,
2000-03-03, 03:59:00,VALID,0,VALID,85.6413,VALID,0,VALID,14.7607,VALID,189,VALID,0.783923,
2000-03-03, 04:00:00,VALID,0,VALID,85.6133,VALID,0,VALID,14.6993,VALID,184,VALID,0.996199,
2000-03-03, 04:01:00,VALID,0,VALID,84.7296,VALID,0,VALID,14.7871,VALID,183,VALID,1.01809,
2000-03-03, 04:02:00,VALID,0,VALID,83.8369,VALID,0,VALID,14.9608,VALID,181,VALID,0.972451,
2000-03-03, 04:03:00,VALID,0,VALID,83.243,VALID,-0.0169808,VALID,15.1122,VALID,174,VALID,0.987695,
2000-03-03, 04:04:00,VALID,0,VALID,82.976,VALID,0,VALID,15.2029,VALID,169,VALID,0.991728,
2000-03-03, 04:05:00,VALID,0,VALID,82.8489,VALID,-0.0169808,VALID,15.2417,VALID,161,VALID,1.01119,
2000-03-03, 04:06:00,VALID,0,VALID,83.3969,VALID,-0.0169808,VALID,15.1836,VALID,156,VALID,1.0779,